User: anonymous   Login
Location: Caltech
(34.1382°N, 118.1253°W)
Time: 15:11:21
(UTC-07:00)
Language:

Meteor 1-11 Rocket - Orbit

View from above orbital plane
View from above orbital plane
View from above satellite
View from above satellite

Ground track
Ground track

The orbit data is extracted from the following two-line orbital elements,

1  5918U 72022B   17081.95514182 +.00000055 +00000-0 +26004-4 0  9994
2  5918 081.2374 049.2862 0057934 208.1878 151.6152 14.05820195305614
Epoch (UTC): 22 March 2017 22:55:24
Eccentricity: 0.0057934
inclination: 81.2374°
perigee height: 832 km
apogee height: 916 km
right ascension of ascending node: 49.2862°
argument of perigee: 208.1878°
revolutions per day: 14.05820195
mean anomaly at epoch: 151.6152°
orbit number at epoch: 30561

The dashed part of the orbit path shows where the satellite is in the earth's shadow,  

DLR